This demonstration page uses our WeatherBlox Daily Observations layout. Learn more.

Left ArrowRight Arrow

Hourly Observations for November 10, 2016

Temp ( °F °C ) Dew Point ( °F °C ) Humidity (%) Winds ( mph kmh ) Pressure ( in mb ) Visibility ( mi km ) Precip ( " mm )
12:59 am 00:59 Mostly Cloudy 53 11.7 44 6.7 72 72 NNW 29 46 29.98 1015 10 16 0.00 0.00
1:59 am 01:59 Mostly Cloudy 52 11.1 43 6.1 72 72 NNW 25 41 30.00 1016 10 16 0.00 0.00
2:59 am 02:59 Partly Cloudy 50 10 42 5.6 74 74 NW 20 31 30.01 1016 10 16 0.00 0.00
3:59 am 03:59 Mostly Clear 50 10 41 5 71 71 NNW 21 33 30.03 1017 10 16 0.00 0.00
4:59 am 04:59 Mostly Clear 49 9.4 40 4.4 71 71 NNW 21 33 30.04 1017 10 16 0.00 0.00
5:59 am 05:59 Mostly Clear 48 8.9 38 3.3 68 68 NNW 18 30 30.06 1018 10 16 0.00 0.00
6:59 am 06:59 Partly Cloudy 48 8.9 37 2.8 66 66 NNW 17 28 30.08 1019 10 16 0.00 0.00
7:59 am 07:59 Partly Cloudy 48 8.9 37 2.8 66 66 NNW 17 28 30.11 1020 10 16 0.00 0.00
8:59 am 08:59 Mostly Sunny 51 10.6 37 2.8 59 59 NNW 16 26 30.12 1020 10 16 0.00 0.00
9:59 am 09:59 Mostly Sunny 53 11.7 38 3.3 57 57 N 15 24 30.13 1020 10 16 0.00 0.00
10:59 am 10:59 Mostly Sunny 55 12.8 38 3.3 53 53 N 14 22 30.12 1020 10 16 0.00 0.00
11:59 am 11:59 Mostly Sunny 57 13.9 38 3.3 49 49 NNW 10 17 30.10 1019 10 16 0.00 0.00
12:59 pm 12:59 Mostly Sunny 58 14.4 37 2.8 46 46 NNW 10 17 30.09 1019 10 16 0.00 0.00
1:59 pm 13:59 Mostly Sunny 60 15.6 35 1.7 39 39 NNW 10 17 30.07 1018 10 16 0.00 0.00
2:59 pm 14:59 Mostly Sunny 58 14.4 36 2.2 44 44 WNW 14 22 30.06 1018 10 16 0.00 0.00
3:59 pm 15:59 Mostly Sunny 58 14.4 34 1.1 41 41 WNW 13 20 30.06 1018 10 16 0.00 0.00
4:59 pm 16:59 Mostly Sunny 56 13.3 34 1.1 44 44 WNW 9 15 30.05 1018 10 16 0.00 0.00
5:59 pm 17:59 Clear 53 11.7 35 1.7 51 51 W 6 9 30.04 1017 10 16 0.00 0.00
6:59 pm 18:59 Clear 48 8.9 38 3.3 68 68 SW 3 6 30.03 1017 10 16 0.00 0.00
7:59 pm 19:59 Clear 50 10 37 2.8 61 61 SSW 7 11 30.02 1017 10 16 0.00 0.00
8:59 pm 20:59 Clear 51 10.6 37 2.8 59 59 SW 8 13 30.01 1016 10 16 0.00 0.00
9:59 pm 21:59 Clear 50 10 36 2.2 59 59 SSW 5 7 29.98 1015 10 16 0.00 0.00
10:59 pm 22:59 Clear 52 11.1 36 2.2 55 55 SW 8 13 29.96 1014 10 16 0.00 0.00
11:59 pm 23:59 Clear 51 10.6 36 2.2 56 56 SW 12 19 29.94 1014 10 16 0.00 0.00

Powered by AerisWeather